Weather History for Worcester, MA

Change the Weather History Date:

Sunday, December 12, 2010

  Actual Average Record
Temperature  
Mean Temperature 41 °F 31 °F  
Max Temperature 53 °F 37 °F 63 °F (1911)
Min Temperature 29 °F 24 °F -4 °F (1988)
Degree Days  
Heating Degree Days 24 34  
Month to date heating degree days 438 388  
Since 1 July heating degree days 1749 1790  
Cooling Degree Days 0 0  
Month to date cooling degree days 0 0  
Year to date cooling degree days 730 471  
Moisture  
Dew Point 42 °F    
Average Humidity 85    
Maximum Humidity 100    
Minimum Humidity 69    
Precipitation  
Precipitation 2.36 in 0.13 in 2.36 in (2010)
Month to date precipitation 3.53 1.60  
Year to date precipitation 49.78 45.85  
Snow  
Snow 0.00 in 0.40 in 17.30 in (1992)
Month to date snowfall 0.0 4.5  
Since 1 July snowfall T 7.3  
Snow Depth 0.00 in    
Sea Level Pressure  
Sea Level Pressure 29.74 in    
Wind  
Wind Speed 12 mph (ESE)    
Max Wind Speed 31 mph    
Max Gust Speed 46 mph    
Visibility 3 miles    
Events Fog , Rain    
T = Trace of Precipitation, MM = Missing Value Source: NWS Daily Summary

Daily Weather History Graph

Daily Weather History Graph

Search for Another Location

Airport:

Trip Planner

Search our weather history database for the weather conditions in past years. The results will help you decide how hot, cold, wet, or windy it might be!

Date:

Astronomy

Dec. 12, 2010 Rise Set
Actual Time 7:07 AM EST 4:15 PM EST
Civil Twilight 6:35 AM EST 4:47 PM EST
Nautical Twilight 5:59 AM EST 5:22 PM EST
Astronomical Twilight 5:25 AM EST 5:56 PM EST
Moon 11:15 AM EST (12/12) 11:21 PM EST (12/12)
Length of Visible Light 10h 11m
Length of Day
9h 08m
Waxing Crescent, 42% of the Moon is Illuminated
Dec 12
Waxing Crescent
Dec 13
First Quarter
Dec 21
Full
Dec 27
Last Quarter
Jan 4
New

Hourly Weather History & Observations

Time (EST) Temp. Windchill Dew Point Humidity Pressure Visibility Wind Dir Wind Speed Gust Speed Precip Events Conditions
12:54 AM 32.0 °F 27.5 °F 24.8 °F 75% 30.17 in 10.0 mi NE 4.6 mph - N/A   Clear
1:54 AM 32.0 °F 27.5 °F 24.8 °F 75% 30.15 in 10.0 mi NE 4.6 mph - N/A   Clear
2:54 AM 30.0 °F 25.2 °F 26.1 °F 85% 30.17 in 10.0 mi NE 4.6 mph - N/A   Clear
3:54 AM 30.0 °F 24.1 °F 27.0 °F 88% 30.15 in 8.0 mi ENE 5.8 mph - N/A   Mostly Cloudy
4:13 AM 30.2 °F 23.4 °F 26.6 °F 86% 30.11 in 7.0 mi NE 6.9 mph - N/A   Overcast
4:54 AM 30.9 °F 25.2 °F 28.9 °F 92% 30.13 in 7.0 mi NE 5.8 mph - N/A   Overcast
5:54 AM 30.9 °F 25.2 °F 30.0 °F 96% 30.11 in 5.0 mi NE 5.8 mph - 0.01 in   Overcast
6:06 AM 30.2 °F 22.6 °F 30.2 °F 100% 30.07 in 4.0 mi ENE 8.1 mph - 0.00 in Rain Light Freezing Rain
6:18 AM 30.2 °F 22.6 °F 30.2 °F 100% 30.07 in 4.0 mi ENE 8.1 mph - 0.01 in Rain Light Freezing Rain
6:54 AM 32.0 °F 24.2 °F 30.9 °F 96% 30.08 in 2.5 mi ENE 9.2 mph - 0.02 in Rain Light Freezing Rain
7:01 AM 32.0 °F 24.8 °F 32.0 °F 100% 30.05 in 2.5 mi ENE 8.1 mph - 0.00 in Rain Light Freezing Rain
7:34 AM 32.0 °F 24.8 °F 32.0 °F 100% 30.02 in 2.5 mi ENE 8.1 mph - 0.00 in   Overcast
7:43 AM 32.0 °F 24.8 °F 32.0 °F 100% 30.02 in 2.0 mi NE 8.1 mph - 0.00 in   Overcast
7:47 AM 32.0 °F 24.8 °F 32.0 °F 100% 30.01 in 1.8 mi NE 8.1 mph - 0.00 in   Overcast
7:54 AM 32.0 °F 23.6 °F 32.0 °F 100% 30.05 in 1.8 mi ENE 10.4 mph - 0.00 in   Overcast
8:12 AM 32.0 °F 24.8 °F 32.0 °F 100% 29.99 in 1.0 mi NE 8.1 mph - 0.00 in   Overcast
8:26 AM 32.0 °F 23.6 °F 32.0 °F 100% 29.99 in 0.5 mi ENE 10.4 mph - 0.01 in Fog Fog
8:37 AM 32.0 °F 24.2 °F 32.0 °F 100% 29.98 in 0.2 mi ENE 9.2 mph - 0.01 in Fog Fog
8:54 AM 33.1 °F 25.5 °F 33.1 °F 100% 30.00 in 0.1 mi NE 9.2 mph - 0.03 in Fog , Rain Light Rain
9:54 AM 35.1 °F 30.1 °F 35.1 °F 100% 29.96 in 0.2 mi ENE 5.8 mph - 0.05 in Fog , Rain Rain
10:54 AM 36.0 °F 29.6 °F 36.0 °F 100% 29.88 in 0.2 mi ENE 8.1 mph - 0.05 in Fog , Rain Light Rain
11:54 AM 37.9 °F 33.5 °F 37.9 °F 100% 29.80 in 0.2 mi ENE 5.8 mph - 0.13 in Fog , Rain Rain
12:27 PM 42.8 °F 38.0 °F 42.8 °F 100% 29.73 in 0.2 mi ESE 8.1 mph 18.4 mph 0.05 in Fog , Rain Rain
12:48 PM 44.6 °F 37.4 °F 44.6 °F 100% 29.72 in 1.0 mi SE 16.1 mph 28.8 mph 0.07 in Rain Light Rain
12:54 PM 45.0 °F 38.2 °F 45.0 °F 100% 29.74 in 2.5 mi SE 15.0 mph 24.2 mph 0.08 in Rain Rain
1:19 PM 46.4 °F 40.4 °F 46.4 °F 100% 29.69 in 3.0 mi SE 13.8 mph 23.0 mph 0.08 in Rain Rain
1:27 PM 46.4 °F 40.1 °F 46.4 °F 100% 29.68 in 1.8 mi SE 15.0 mph 20.7 mph 0.12 in Rain Heavy Rain
1:41 PM 46.4 °F 40.4 °F 46.4 °F 100% 29.66 in 2.0 mi SE 13.8 mph 20.7 mph 0.18 in Rain Rain
1:44 PM 46.4 °F 40.7 °F 46.4 °F 100% 29.66 in 1.8 mi ESE 12.7 mph 20.7 mph 0.19 in Rain Rain
1:54 PM 46.9 °F - 46.9 °F 100% 29.68 in 1.0 mi ESE 12.7 mph 19.6 mph 0.20 in Rain Rain
2:16 PM 46.4 °F 40.4 °F 46.4 °F 100% 29.63 in 2.5 mi SE 13.8 mph 26.5 mph 0.08 in Rain Heavy Rain
2:27 PM 46.4 °F 39.8 °F 46.4 °F 100% 29.62 in 3.0 mi SE 16.1 mph 25.3 mph 0.11 in Rain Rain
2:39 PM 48.2 °F - 48.2 °F 100% 29.62 in 3.0 mi SE 20.7 mph 27.6 mph 0.16 in Rain Heavy Rain
2:54 PM 48.0 °F - 48.0 °F 100% 29.64 in 3.0 mi SSE 21.9 mph 29.9 mph 0.21 in Rain Rain
3:05 PM 48.2 °F - 48.2 °F 100% 29.60 in 2.5 mi SSE 25.3 mph 36.8 mph 0.04 in Rain Heavy Rain
3:14 PM 48.2 °F - 48.2 °F 100% 29.60 in 4.0 mi SSE 24.2 mph 34.5 mph 0.08 in Rain Heavy Rain
3:25 PM 48.2 °F - 48.2 °F 100% 29.60 in 2.5 mi SSE 24.2 mph 35.7 mph 0.13 in Rain Heavy Rain
3:34 PM 48.2 °F - 48.2 °F 100% 29.59 in 4.0 mi SSE 21.9 mph 34.5 mph 0.14 in Rain Heavy Rain
3:54 PM 50.0 °F - 50.0 °F 100% 29.60 in 2.5 mi SSE 23.0 mph 33.4 mph 0.23 in Rain Heavy Rain
4:09 PM 50.0 °F - 50.0 °F 100% 29.57 in 3.0 mi SSE 19.6 mph 32.2 mph 0.07 in Rain Heavy Rain
4:54 PM 50.0 °F - 50.0 °F 100% 29.59 in 3.0 mi SSE 19.6 mph 31.1 mph 0.33 in Rain Heavy Rain
5:38 PM 50.0 °F - 50.0 °F 100% 29.54 in 1.8 mi ESE 9.2 mph - 0.17 in Rain Rain
5:50 PM 50.0 °F - 50.0 °F 100% 29.53 in 0.8 mi SE 11.5 mph - 0.20 in Rain Rain
5:54 PM 50.0 °F - 50.0 °F 100% 29.55 in 0.8 mi ESE 9.2 mph - 0.21 in Rain Rain
6:09 PM 50.0 °F - 50.0 °F 100% 29.50 in 0.2 mi ESE 8.1 mph - 0.01 in Fog , Rain Light Rain
6:26 PM 50.0 °F - 50.0 °F 100% 29.50 in 1.0 mi SE 12.7 mph 21.9 mph 0.03 in Rain Light Rain
6:33 PM 50.0 °F - 50.0 °F 100% 29.48 in 3.0 mi SE 11.5 mph 21.9 mph 0.04 in Rain Rain
6:54 PM 50.0 °F - 50.0 °F 100% 29.49 in 6.0 mi SE 10.4 mph - 0.05 in Rain Light Rain
6:59 PM 50.0 °F - 50.0 °F 100% 29.47 in 1.8 mi SE 9.2 mph - 0.00 in Rain Light Rain
7:08 PM 50.0 °F - 50.0 °F 100% 29.45 in 0.5 mi SE 16.1 mph 25.3 mph 0.03 in Fog , Rain Heavy Rain
7:14 PM 50.0 °F - 50.0 °F 100% 29.44 in 1.0 mi ESE 15.0 mph 25.3 mph 0.06 in Rain Heavy Rain
7:22 PM 50.0 °F - 50.0 °F 100% 29.44 in 3.0 mi SE 16.1 mph 23.0 mph 0.08 in Rain Light Rain
7:37 PM 51.8 °F - 51.8 °F 100% 29.42 in 5.0 mi SE 24.2 mph 40.3 mph 0.09 in Rain Light Rain
7:54 PM 52.0 °F - 52.0 °F 100% 29.42 in 8.0 mi SE 31.1 mph 39.1 mph 0.11 in Rain Light Rain
8:54 PM 53.1 °F - 53.1 °F 100% 29.37 in 6.0 mi SE 20.7 mph 33.4 mph 0.06 in Rain Rain
9:54 PM 52.0 °F - 52.0 °F 100% 29.31 in 2.5 mi SSE 17.3 mph 33.4 mph 0.27 in Rain Heavy Rain
10:06 PM 51.8 °F - 51.8 °F 100% 29.29 in 4.0 mi SSE 16.1 mph - 0.10 in Rain Heavy Rain